St. Johns, AZ

3:51 AM MST on October 21, 2019 (GMT -0700)
Saint Johns Industrial

Weather History for KSJN - August, 2019

Change the Weather History Date:

Tuesday, August 13, 2019

  Actual Average (WUND) Record (WUND)
Temperature  
Mean Temperature 70 °F -  
Max Temperature 89 °F - - (-1)
Min Temperature 50 °F - - (-1)
Cooling Degree Days 4    
Growing Degree Days 20 (Base 50)    
Moisture  
Dew Point 39 °F    
Average Humidity 33    
Maximum Humidity 72    
Minimum Humidity 5    
Precipitation  
Precipitation 0.00 in - - ()
Sea Level Pressure  
Sea Level Pressure 29.97 in    
Wind  
Wind Speed 4 mph (South)    
Max Wind Speed 10 mph    
Max Gust Speed -    
Visibility 10 miles    
Events      
Averages and records for this station are not official NWS values.
T = Trace of Precipitation, MM = Missing Value Source: NWS Daily Summary

Daily Weather History Graph

Daily Weather History Graph

Search for Another Location

Airport or City:

Astronomy

Aug. 13, 2019 Rise Set
Actual Time 5:36 AM MST 7:07 PM MST
Civil Twilight 5:09 AM MST 7:34 PM MST
Nautical Twilight 4:37 AM MST 8:06 PM MST
Astronomical Twilight 4:04 AM MST 8:39 PM MST
Moon 6:19 PM MST (8/13) 3:47 AM MST (8/13)
Length of Visible Light 14h 24m
Length of Day
13h 30m
Waxing Gibbous, 97% of the Moon is Illuminated
Aug 13
Waxing Gibbous
Aug 15
Full
Aug 23
Last Quarter
Aug 30
New
Sep 5
First Quarter

Hourly Weather History & Observations

Time (MST) Temp. Dew Point Humidity Pressure Visibility Wind Dir Wind Speed Gust Speed Precip Events Conditions
12:54 AM 66.0 °F 48.9 °F 54% 29.96 in 10.0 mi SE 4.6 mph - N/A   Clear
1:54 AM 62.1 °F 48.9 °F 62% 29.97 in 10.0 mi Calm Calm - N/A   Clear
2:54 AM 60.1 °F 48.9 °F 67% 29.96 in 10.0 mi SSW 4.6 mph - N/A   Clear
3:54 AM 59.0 °F 48.9 °F 69% 29.97 in 10.0 mi South 4.6 mph - N/A   Clear
4:54 AM 57.9 °F 48.9 °F 72% 29.98 in 10.0 mi South 4.6 mph - N/A   Clear
5:54 AM 57.9 °F 48.0 °F 70% 30.01 in 10.0 mi South 6.9 mph - N/A   Clear
6:54 AM 64.0 °F 48.0 °F 56% 30.05 in 10.0 mi SSE 5.8 mph - N/A   Clear
7:54 AM 69.1 °F 48.0 °F 47% 30.04 in 10.0 mi SE 4.6 mph - N/A   Clear
8:54 AM 77.0 °F 43.0 °F 30% 30.01 in 10.0 mi Variable 4.6 mph - N/A   Clear
9:54 AM 81.0 °F 36.0 °F 20% 30.01 in 10.0 mi Variable 4.6 mph - N/A   Clear
10:54 AM 84.0 °F 30.9 °F 15% 30.00 in 10.0 mi NW 5.8 mph - N/A   Clear
11:54 AM 87.1 °F 30.9 °F 13% 29.98 in 10.0 mi WNW 9.2 mph - N/A   Clear
12:54 PM 89.1 °F 33.1 °F 14% 29.96 in 10.0 mi Variable 6.9 mph - N/A   Clear
1:54 PM 88.0 °F 34.0 °F 15% 29.95 in 10.0 mi Calm Calm - N/A   Clear
2:54 PM 89.1 °F 34.0 °F 14% 29.93 in 10.0 mi NNE 10.4 mph - N/A   Clear
3:54 PM 91.0 °F 33.1 °F 13% 29.91 in 10.0 mi SE 6.9 mph - N/A   Clear
4:54 PM 90.0 °F 34.0 °F 14% 29.91 in 10.0 mi WNW 4.6 mph - N/A   Clear
5:54 PM 89.1 °F 37.0 °F 16% 29.89 in 10.0 mi Variable 3.5 mph - N/A   Clear
6:54 PM 84.0 °F 39.0 °F 20% 29.89 in 10.0 mi West 3.5 mph - N/A   Clear
7:54 PM 75.9 °F 41.0 °F 29% 29.92 in 10.0 mi Calm Calm - N/A   Clear
8:54 PM 73.0 °F 43.0 °F 34% 29.93 in 10.0 mi Calm Calm - N/A   Clear
9:54 PM 66.9 °F 43.0 °F 42% 29.94 in 10.0 mi South 4.6 mph - N/A   Clear
10:54 PM 70.0 °F 46.0 °F 42% 29.93 in 10.0 mi South 6.9 mph - N/A   Partly Cloudy
11:54 PM 69.1 °F 45.0 °F 42% 29.93 in 10.0 mi South 6.9 mph - N/A   Clear